| time (UTC) | temp F | wind direction | speed knots | gust knots | rain 1hr in | rain 24hr in | rain mn in | humidity % | barometer mb |
| 20260906223904 | 47 | 135 | 10.4 | 22.6 | 0.06 | 3.23 | 1.96 | 84 | 1002.2 |
| 20260906223404 | 47 | 136 | 13.9 | 24.3 | 0.04 | 3.21 | 1.94 | 84 | 1002.0 |
| 20260906222904 | 47 | 147 | 10.4 | 26.9 | 0.02 | 3.20 | 1.93 | 83 | 1002.0 |
| 20260906222404 | 48 | 135 | 11.3 | 26.9 | 0.01 | 3.18 | 1.91 | 81 | 1002.0 |
| 20260906221904 | 48 | 141 | 14.8 | 32.2 | 0.00 | 3.17 | 1.91 | 81 | 1001.8 |
| 20260906220904 | 48 | 128 | 13.0 | 31.3 | 0.00 | 3.17 | 1.91 | 81 | 1001.4 |
| 20260906220404 | 48 | 123 | 15.6 | 28.7 | 0.00 | 3.17 | 1.91 | 81 | 1001.5 |
| 20260906215904 | 48 | 130 | 11.3 | 26.1 | 0.00 | 3.17 | 1.91 | 82 | 1001.4 |
| 20260906214904 | 48 | 134 | 14.8 | 33.9 | 0.00 | 3.17 | 1.91 | 81 | 1001.4 |
| 20260906214405 | 48 | 112 | 15.6 | 31.3 | 0.01 | 3.17 | 1.91 | 82 | 1001.2 |
| 20260906213904 | 48 | 128 | 15.6 | 30.4 | 0.01 | 3.17 | 1.91 | 82 | 1000.9 |
| 20260906213405 | 47 | 119 | 16.5 | 32.2 | 0.02 | 3.18 | 1.91 | 83 | 1001.0 |
| 20260906212404 | 47 | 134 | 11.3 | 31.3 | 0.03 | 3.18 | 1.91 | 85 | 1000.9 |
| 20260906211904 | 47 | 123 | 13.0 | 28.7 | 0.03 | 3.18 | 1.91 | 86 | 1000.9 |
| 20260906205906 | 46 | 134 | 15.6 | 32.2 | 0.07 | 3.18 | 1.91 | 88 | 1000.7 |
| 20260906205405 | 46 | 126 | 13.0 | 30.4 | 0.09 | 3.18 | 1.91 | 88 | 1000.8 |
| 20260906204905 | 46 | 128 | 15.6 | 33.9 | 0.09 | 3.19 | 1.91 | 88 | 1000.7 |
| 20260906204404 | 46 | 129 | 15.6 | 33.0 | 0.09 | 3.19 | 1.90 | 88 | 1000.7 |
| 20260906203904 | 47 | 124 | 13.9 | 22.6 | 0.09 | 3.20 | 1.90 | 89 | 1000.8 |
| 20260906203405 | 47 | 133 | 14.8 | 26.9 | 0.09 | 3.19 | 1.89 | 89 | 1000.7 |
| 20260906202905 | 47 | 120 | 12.2 | 22.6 | 0.09 | 3.18 | 1.88 | 89 | 1000.8 |
| 20260906201904 | 47 | 128 | 11.3 | 25.2 | 0.09 | 3.18 | 1.87 | 90 | 1000.7 |
| 20260906201404 | 47 | 123 | 7.8 | 27.8 | 0.09 | 3.17 | 1.87 | 90 | 1000.7 |
| 20260906200404 | 47 | 129 | 10.4 | 26.1 | 0.09 | 3.17 | 1.84 | 90 | 1000.4 |
| 20260906195904 | 47 | 119 | 8.7 | 22.6 | 0.09 | 3.16 | 1.83 | 90 | 1000.5 |
| 20260906195404 | 48 | 110 | 10.4 | 19.1 | 0.11 | 3.14 | 1.82 | 90 | 1000.4 |
| 20260906194905 | 48 | 91 | 7.8 | 22.6 | 0.12 | 3.14 | 1.81 | 90 | 1000.6 |
| 20260906194404 | 47 | 94 | 8.7 | 22.6 | 0.13 | 3.13 | 1.80 | 90 | 1000.5 |
| 20260906193903 | 47 | 78 | 7.8 | 18.2 | 0.14 | 3.14 | 1.80 | 90 | 1000.3 |
| 20260906193404 | 47 | 107 | 7.0 | 17.4 | 0.14 | 3.13 | 1.80 | 91 | 1000.2 |
| 20260906192404 | 47 | 90 | 8.7 | 26.1 | 0.15 | 3.14 | 1.79 | 90 | 1000.1 |
| 20260906191903 | 47 | 94 | 7.8 | 17.4 | 0.17 | 3.14 | 1.79 | 91 | 1000.1 |
| 20260906191404 | 47 | 127 | 10.4 | 25.2 | 0.17 | 3.13 | 1.78 | 91 | 1000.0 |
| 20260906190404 | 47 | 113 | 8.7 | 25.2 | 0.17 | 3.14 | 1.76 | 91 | 999.7 |
| 20260906185904 | 47 | 79 | 9.6 | 21.7 | 0.17 | 3.13 | 1.74 | 91 | 999.5 |
| 20260906185404 | 47 | 99 | 8.7 | 24.3 | 0.15 | 3.09 | 1.71 | 91 | 999.4 |
| 20260906184905 | 47 | 124 | 10.4 | 21.7 | 0.15 | 3.08 | 1.69 | 91 | 999.5 |
| 20260906184404 | 47 | 105 | 8.7 | 24.3 | 0.15 | 3.06 | 1.68 | 91 | 999.7 |
| 20260906183904 | 48 | 116 | 12.2 | 22.6 | 0.15 | 3.05 | 1.66 | 91 | 999.6 |
| 20260906183405 | 48 | 91 | 5.2 | 15.6 | 0.17 | 3.04 | 1.65 | 91 | 999.4 |
| 20260906182904 | 48 | 87 | 7.0 | 24.3 | 0.20 | 3.03 | 1.65 | 91 | 999.5 |
| 20260906182404 | 48 | 79 | 7.8 | 19.1 | 0.21 | 3.02 | 1.64 | 91 | 999.3 |
| 20260906181904 | 48 | 102 | 11.3 | 25.2 | 0.22 | 3.01 | 1.62 | 91 | 999.1 |
| 20260906181404 | 48 | 63 | 7.0 | 17.4 | 0.24 | 2.99 | 1.61 | 91 | 998.9 |
| 20260906180904 | 48 | 85 | 7.8 | 20.0 | 0.26 | 2.98 | 1.60 | 91 | 998.9 |
| 20260906180405 | 48 | 93 | 7.0 | 22.6 | 0.31 | 2.98 | 1.59 | 91 | 999.0 |
| 20260906175904 | 48 | 97 | 7.8 | 17.4 | 0.36 | 2.96 | 1.57 | 91 | 998.9 |
| 20260906175404 | 48 | 96 | 5.2 | 22.6 | 0.40 | 2.94 | 1.56 | 91 | 999.1 |
| 20260906174903 | 48 | 82 | 6.1 | 17.4 | 0.43 | 2.93 | 1.54 | 91 | 999.0 |
| 20260906174404 | 48 | 113 | 9.6 | 20.9 | 0.44 | 2.91 | 1.53 | 91 | 999.0 |
| 20260906172904 | 48 | 129 | 7.0 | 20.9 | 0.53 | 2.83 | 1.45 | 91 | 998.7 |
| 20260906172404 | 48 | 102 | 7.8 | 28.7 | 0.57 | 2.81 | 1.43 | 91 | 998.7 |
| 20260906170904 | 49 | 111 | 8.7 | 22.6 | 0.68 | 2.72 | 1.34 | 92 | 998.7 |
| 20260906170404 | 49 | 85 | 7.8 | 17.4 | 0.65 | 2.66 | 1.28 | 92 | 998.6 |
| 20260906165904 | 49 | 121 | 6.1 | 24.3 | 0.61 | 2.60 | 1.21 | 91 | 998.7 |
| 20260906165404 | 49 | 94 | 6.1 | 17.4 | 0.61 | 2.54 | 1.16 | 92 | 998.6 |
| 20260906163904 | 50 | 97 | 9.6 | 27.8 | 0.60 | 2.43 | 1.04 | 92 | 997.9 |
| 20260906163404 | 50 | 124 | 8.7 | 20.9 | 0.60 | 2.37 | 0.98 | 91 | 997.8 |
| 20260906162904 | 50 | 115 | 6.1 | 20.9 | 0.59 | 2.31 | 0.92 | 92 | 997.5 |
| 20260906161905 | 50 | 108 | 6.1 | 20.9 | 0.50 | 2.17 | 0.79 | 91 | 997.3 |
| 20260906161404 | 50 | 113 | 7.8 | 20.9 | 0.46 | 2.11 | 0.72 | 91 | 997.2 |
| 20260906160904 | 51 | 120 | 4.3 | 17.4 | 0.40 | 2.05 | 0.66 | 92 | 997.3 |
| 20260906160404 | 51 | 108 | 7.8 | 20.9 | 0.38 | 2.02 | 0.63 | 91 | 997.3 |
| 20260906155904 | 52 | 93 | 8.7 | 17.4 | 0.35 | 1.98 | 0.60 | 92 | 997.0 |
| 20260906155404 | 52 | 132 | 7.8 | 20.9 | 0.31 | 1.94 | 0.55 | 91 | 997.1 |
| 20260906154903 | 53 | 90 | 6.1 | 17.4 | 0.28 | 1.90 | 0.51 | 91 | 997.1 |
| 20260906154404 | 53 | 98 | 7.8 | 20.0 | 0.26 | 1.87 | 0.48 | 91 | 997.1 |
| 20260906153904 | 54 | 84 | 7.8 | 22.6 | 0.23 | 1.83 | 0.44 | 92 | 997.2 |
| 20260906153404 | 56 | 74 | 7.8 | 17.4 | 0.18 | 1.77 | 0.39 | 92 | 997.4 |
| 20260906152904 | 56 | 79 | 0.9 | 6.1 | 0.13 | 1.72 | 0.33 | 92 | 996.8 |
| 20260906151904 | 56 | 106 | 1.7 | 10.4 | 0.11 | 1.67 | 0.28 | 92 | 996.7 |
| 20260906151404 | 57 | 104 | 1.7 | 10.4 | 0.10 | 1.65 | 0.27 | 92 | 996.8 |
| 20260906150904 | 57 | 92 | 2.6 | 7.8 | 0.10 | 1.65 | 0.26 | 92 | 997.0 |
| 20260906145903 | 57 | 130 | 2.6 | 7.0 | 0.10 | 1.63 | 0.24 | 92 | 997.1 |
| 20260906145404 | 57 | 112 | 2.6 | 7.0 | 0.11 | 1.62 | 0.24 | 92 | 997.3 |
| 20260906144905 | 57 | 106 | 2.6 | 10.4 | 0.12 | 1.62 | 0.24 | 92 | 997.5 |
| 20260906143404 | 57 | 78 | 1.7 | 6.1 | 0.11 | 1.59 | 0.20 | 92 | 998.0 |
| 20260906142905 | 57 | 68 | 1.7 | 7.8 | 0.11 | 1.58 | 0.20 | 92 | 998.1 |
| 20260906141904 | 57 | 77 | 0.9 | 2.6 | 0.10 | 1.56 | 0.17 | 92 | 998.3 |
| 20260906141404 | 57 | 78 | 0.0 | 0.9 | 0.10 | 1.55 | 0.17 | 92 | 998.5 |
| 20260906140904 | 57 | 110 | 0.0 | 2.6 | 0.11 | 1.54 | 0.16 | 92 | 998.6 |
| 20260906140404 | 57 | 118 | 0.9 | 1.7 | 0.12 | 1.54 | 0.15 | 92 | 998.7 |
| 20260906135905 | 57 | 30 | 0.9 | 1.7 | 0.12 | 1.53 | 0.14 | 92 | 998.9 |
| 20260906135404 | 57 | 25 | 0.0 | 0.9 | 0.11 | 1.51 | 0.13 | 92 | 999.0 |
| 20260906134904 | 57 | 25 | 0.0 | 1.7 | 0.10 | 1.50 | 0.12 | 91 | 999.1 |
| 20260906134404 | 57 | 25 | 0.9 | 1.7 | 0.09 | 1.50 | 0.11 | 92 | 999.2 |
| 20260906133903 | 57 | 28 | 0.9 | 2.6 | 0.09 | 1.49 | 0.10 | 92 | 999.3 |
| 20260906133404 | 57 | 11 | 1.7 | 2.6 | 0.08 | 1.48 | 0.09 | 91 | 999.4 |
| 20260906132904 | 57 | 1 | 0.9 | 2.6 | 0.08 | 1.47 | 0.09 | 91 | 999.5 |
| 20260906132404 | 57 | 4 | 0.9 | 2.6 | 0.07 | 1.46 | 0.08 | 91 | 999.7 |
| 20260906131905 | 57 | 347 | 0.9 | 2.6 | 0.06 | 1.46 | 0.07 | 91 | 999.7 |
| 20260906130904 | 57 | 353 | 4.3 | 8.7 | 0.04 | 1.43 | 0.05 | 92 | 999.9 |
| 20260906130403 | 57 | 1 | 4.3 | 8.7 | 0.03 | 1.42 | 0.03 | 92 | 999.9 |
| 20260906125907 | 57 | 342 | 2.6 | 10.4 | 0.72 | 1.41 | 0.02 | 92 | 999.9 |
| 20260906125410 | 58 | 353 | 4.3 | 8.7 | 0.71 | 1.40 | 0.02 | 92 | 999.8 |
| 20260906124908 | 57 | 0 | 4.3 | 8.7 | 0.71 | 1.40 | 0.02 | 92 | 999.8 |
| 20260906123907 | 58 | 344 | 4.3 | 10.4 | 0.72 | 1.40 | 0.02 | 92 | 999.9 |
| 20260906123406 | 58 | 355 | 3.5 | 10.4 | 0.73 | 1.40 | 0.02 | 92 | 999.9 |
| 20260906122908 | 58 | 348 | 2.6 | 8.7 | 0.73 | 1.39 | 0.01 | 92 | 999.9 |
| 20260906121407 | 58 | 350 | 4.3 | 10.4 | 0.74 | 1.39 | 0.01 | 92 | 1000.0 |
| 20260906120907 | 58 | 342 | 4.3 | 10.4 | 0.75 | 1.39 | 0.01 | 92 | 1000.0 |
| 20260906120407 | 58 | 350 | 4.3 | 10.4 | 0.74 | 1.39 | 0.00 | 92 | 1000.0 |
| 20260906115408 | 58 | 349 | 4.3 | 10.4 | 0.06 | 0.69 | 0.69 | 91 | 1000.1 |
| 20260906114907 | 58 | 350 | 5.2 | 10.4 | 0.06 | 0.69 | 0.69 | 91 | 1000.2 |
| 20260906114407 | 58 | 0 | 3.5 | 10.4 | 0.06 | 0.69 | 0.69 | 91 | 1000.3 |
| 20260906113907 | 58 | 330 | 5.2 | 10.4 | 0.06 | 0.69 | 0.69 | 91 | 1000.2 |
| 20260906113407 | 58 | 336 | 4.3 | 10.4 | 0.08 | 0.68 | 0.68 | 91 | 1000.3 |
| 20260906112907 | 58 | 337 | 3.5 | 10.4 | 0.07 | 0.66 | 0.66 | 91 | 1000.4 |
| 20260906112407 | 58 | 347 | 3.5 | 10.4 | 0.08 | 0.66 | 0.66 | 91 | 1000.4 |
| 20260906111907 | 58 | 354 | 2.6 | 8.7 | 0.07 | 0.65 | 0.65 | 91 | 1000.5 |
| 20260906111407 | 58 | 347 | 4.3 | 11.3 | 0.07 | 0.65 | 0.65 | 91 | 1000.5 |
| 20260906110906 | 57 | 347 | 3.5 | 10.4 | 0.06 | 0.65 | 0.65 | 91 | 1000.7 |
| 20260906104907 | 58 | 351 | 6.1 | 13.9 | 0.07 | 0.64 | 0.64 | 91 | 1001.0 |
| 20260906104407 | 58 | 348 | 7.8 | 14.8 | 0.06 | 0.63 | 0.63 | 91 | 1001.1 |
| 20260906103407 | 58 | 353 | 8.7 | 14.8 | 0.04 | 0.60 | 0.60 | 91 | 1001.1 |
| 20260906102907 | 58 | 354 | 8.7 | 14.8 | 0.03 | 0.59 | 0.59 | 91 | 1001.2 |
| 20260906102406 | 58 | 344 | 6.1 | 17.4 | 0.03 | 0.58 | 0.58 | 91 | 1001.2 |
| 20260906101907 | 58 | 345 | 7.0 | 17.4 | 0.03 | 0.58 | 0.58 | 91 | 1001.3 |
| 20260906101406 | 58 | 352 | 6.1 | 13.0 | 0.03 | 0.58 | 0.58 | 91 | 1001.3 |
| 20260906100906 | 58 | 352 | 6.1 | 17.4 | 0.03 | 0.58 | 0.58 | 91 | 1001.3 |
| 20260906095907 | 58 | 342 | 6.1 | 15.6 | 0.03 | 0.57 | 0.57 | 91 | 1001.3 |
| 20260906095407 | 58 | 350 | 6.1 | 13.9 | 0.03 | 0.57 | 0.57 | 91 | 1001.3 |
| 20260906094907 | 58 | 353 | 6.1 | 13.0 | 0.03 | 0.57 | 0.57 | 91 | 1001.4 |
| 20260906094407 | 58 | 324 | 7.0 | 14.8 | 0.03 | 0.57 | 0.57 | 91 | 1001.5 |
| 20260906093911 | 58 | 342 | 5.2 | 13.0 | 0.02 | 0.56 | 0.56 | 91 | 1001.6 |
| 20260906092907 | 58 | 350 | 7.0 | 18.2 | 0.03 | 0.56 | 0.56 | 91 | 1001.6 |
| 20260906092407 | 58 | 339 | 6.1 | 17.4 | 0.03 | 0.55 | 0.55 | 91 | 1001.6 |
| 20260906091907 | 58 | 338 | 5.2 | 12.2 | 0.03 | 0.55 | 0.55 | 91 | 1001.7 |
| 20260906091407 | 58 | 353 | 8.7 | 14.8 | 0.04 | 0.55 | 0.55 | 91 | 1001.6 |
| 20260906090908 | 58 | 340 | 8.7 | 17.4 | 0.04 | 0.55 | 0.55 | 91 | 1001.6 |
| 20260906090406 | 58 | 342 | 9.6 | 17.4 | 0.03 | 0.54 | 0.54 | 91 | 1001.6 |
| 20260906085907 | 58 | 332 | 9.6 | 20.0 | 0.03 | 0.54 | 0.54 | 91 | 1001.6 |
| 20260906084907 | 58 | 346 | 11.3 | 19.1 | 0.02 | 0.54 | 0.54 | 91 | 1001.6 |
| 20260906084407 | 58 | 345 | 10.4 | 24.3 | 0.03 | 0.54 | 0.54 | 91 | 1001.5 |
| 20260906083908 | 59 | 337 | 10.4 | 20.9 | 0.03 | 0.54 | 0.54 | 91 | 1001.5 |
| 20260906083407 | 59 | 341 | 9.6 | 22.6 | 0.02 | 0.53 | 0.53 | 91 | 1001.4 |
| 20260906082907 | 59 | 353 | 11.3 | 20.9 | 0.03 | 0.53 | 0.53 | 91 | 1001.4 |
| 20260906082407 | 59 | 342 | 11.3 | 22.6 | 0.04 | 0.52 | 0.52 | 91 | 1001.4 |
| 20260906081908 | 59 | 348 | 11.3 | 20.9 | 0.05 | 0.52 | 0.52 | 91 | 1001.4 |
| 20260906081407 | 59 | 341 | 9.6 | 20.9 | 0.05 | 0.51 | 0.51 | 91 | 1001.5 |
| 20260906080907 | 59 | 352 | 10.4 | 24.3 | 0.05 | 0.51 | 0.51 | 91 | 1001.5 |
| 20260906080407 | 59 | 342 | 13.0 | 21.7 | 0.05 | 0.51 | 0.51 | 91 | 1001.6 |
| 20260906075907 | 59 | 343 | 11.3 | 19.1 | 0.06 | 0.51 | 0.51 | 91 | 1001.5 |
| 20260906075408 | 59 | 344 | 11.3 | 22.6 | 0.06 | 0.51 | 0.51 | 91 | 1001.5 |
| 20260906074907 | 59 | 348 | 11.3 | 22.6 | 0.06 | 0.51 | 0.51 | 91 | 1001.6 |
| 20260906074408 | 59 | 356 | 13.9 | 24.3 | 0.06 | 0.50 | 0.50 | 91 | 1001.6 |
| 20260906073907 | 59 | 345 | 12.2 | 20.9 | 0.08 | 0.50 | 0.50 | 91 | 1001.7 |
| 20260906072907 | 59 | 346 | 13.0 | 22.6 | 0.08 | 0.50 | 0.50 | 91 | 1001.7 |
| 20260906072407 | 59 | 348 | 13.0 | 21.7 | 0.07 | 0.48 | 0.48 | 91 | 1001.8 |
| 20260906071907 | 59 | 348 | 12.2 | 26.1 | 0.06 | 0.47 | 0.47 | 91 | 1001.8 |
| 20260906071407 | 59 | 346 | 11.3 | 24.3 | 0.06 | 0.46 | 0.46 | 91 | 1001.8 |
| 20260906070407 | 59 | 357 | 15.6 | 26.1 | 0.06 | 0.46 | 0.46 | 91 | 1002.0 |
| 20260906065907 | 59 | 341 | 12.2 | 24.3 | 0.05 | 0.46 | 0.46 | 91 | 1001.9 |
| 20260906065407 | 59 | 350 | 13.9 | 25.2 | 0.04 | 0.45 | 0.45 | 91 | 1001.8 |
| 20260906064906 | 59 | 337 | 14.8 | 24.3 | 0.04 | 0.45 | 0.45 | 91 | 1001.9 |
| 20260906064406 | 59 | 347 | 14.8 | 25.2 | 0.03 | 0.44 | 0.44 | 91 | 1001.8 |
| 20260906063907 | 59 | 349 | 12.2 | 24.3 | 0.02 | 0.43 | 0.43 | 91 | 1002.0 |
| 20260906063407 | 59 | 346 | 16.5 | 33.0 | 0.01 | 0.42 | 0.42 | 91 | 1001.9 |
| 20260906062407 | 59 | 353 | 15.6 | 26.9 | 0.00 | 0.41 | 0.41 | 90 | 1001.9 |
| 20260906061408 | 59 | 344 | 14.8 | 30.4 | 0.00 | 0.41 | 0.41 | 91 | 1001.8 |
| 20260906060906 | 59 | 347 | 16.5 | 22.6 | 0.00 | 0.41 | 0.41 | 91 | 1002.0 |
| 20260906060407 | 59 | 349 | 13.9 | 25.2 | 0.00 | 0.41 | 0.41 | 91 | 1002.1 |
| 20260906055906 | 59 | 351 | 12.2 | 22.6 | 0.00 | 0.41 | 0.41 | 90 | 1002.0 |
| 20260906055407 | 59 | 328 | 12.2 | 22.6 | 0.00 | 0.41 | 0.41 | 91 | 1002.1 |
| 20260906054908 | 59 | 344 | 12.2 | 26.9 | 0.00 | 0.41 | 0.41 | 90 | 1002.1 |
| 20260906052906 | 59 | 344 | 13.9 | 26.1 | 0.00 | 0.41 | 0.41 | 91 | 1002.4 |
| 20260906052407 | 59 | 348 | 12.2 | 21.7 | 0.00 | 0.41 | 0.41 | 91 | 1002.5 |
| 20260906051907 | 59 | 346 | 14.8 | 38.2 | 0.00 | 0.41 | 0.41 | 91 | 1002.5 |
| 20260906051406 | 59 | 358 | 14.8 | 30.4 | 0.00 | 0.41 | 0.41 | 90 | 1002.4 |
| 20260906050906 | 59 | 338 | 15.6 | 30.4 | 0.00 | 0.41 | 0.41 | 90 | 1002.5 |
| 20260906050406 | 59 | 341 | 14.8 | 28.7 | 0.00 | 0.41 | 0.41 | 90 | 1002.5 |
| 20260906045906 | 59 | 357 | 13.9 | 25.2 | 0.00 | 0.41 | 0.41 | 90 | 1002.4 |
| 20260906045407 | 59 | 3 | 14.8 | 26.9 | 0.00 | 0.41 | 0.41 | 90 | 1002.4 |
| 20260906044407 | 59 | 341 | 14.8 | 30.4 | 0.00 | 0.41 | 0.41 | 90 | 1002.3 |
| 20260906043907 | 59 | 349 | 16.5 | 26.1 | 0.00 | 0.41 | 0.41 | 90 | 1002.4 |
| 20260906043406 | 59 | 355 | 18.2 | 31.3 | 0.00 | 0.41 | 0.41 | 90 | 1002.3 |
| 20260906042906 | 59 | 354 | 16.5 | 33.0 | 0.00 | 0.41 | 0.41 | 90 | 1002.4 |
| 20260906041907 | 59 | 350 | 15.6 | 30.4 | 0.00 | 0.41 | 0.41 | 90 | 1002.5 |
| 20260906041406 | 59 | 346 | 14.8 | 26.1 | 0.00 | 0.41 | 0.41 | 90 | 1002.6 |
| 20260906040907 | 59 | 339 | 17.4 | 30.4 | 0.00 | 0.41 | 0.41 | 91 | 1002.6 |
| 20260906040406 | 59 | 353 | 17.4 | 31.3 | 0.00 | 0.41 | 0.41 | 91 | 1002.6 |
| 20260906035906 | 59 | 336 | 13.9 | 26.1 | 0.00 | 0.41 | 0.41 | 91 | 1002.7 |
| 20260906035406 | 59 | 353 | 15.6 | 32.2 | 0.00 | 0.41 | 0.41 | 91 | 1002.7 |
| 20260906034907 | 59 | 346 | 17.4 | 28.7 | 0.00 | 0.41 | 0.41 | 91 | 1002.9 |
| 20260906034406 | 58 | 349 | 17.4 | 27.8 | 0.01 | 0.41 | 0.41 | 91 | 1003.0 |
| 20260906033906 | 58 | 336 | 14.8 | 30.4 | 0.02 | 0.41 | 0.41 | 91 | 1003.1 |
| 20260906033406 | 58 | 346 | 14.8 | 30.4 | 0.02 | 0.41 | 0.41 | 91 | 1003.0 |
| 20260906032907 | 58 | 348 | 17.4 | 30.4 | 0.02 | 0.41 | 0.41 | 91 | 1003.3 |
| 20260906032407 | 58 | 351 | 17.4 | 31.3 | 0.02 | 0.41 | 0.41 | 91 | 1003.2 |
| 20260906031906 | 58 | 341 | 18.2 | 30.4 | 0.03 | 0.41 | 0.41 | 91 | 1003.1 |
| 20260906031406 | 58 | 354 | 17.4 | 27.8 | 0.04 | 0.41 | 0.41 | 91 | 1003.2 |
| 20260906030907 | 58 | 352 | 17.4 | 32.2 | 0.06 | 0.41 | 0.41 | 91 | 1003.4 |
| 20260906025907 | 58 | 343 | 13.9 | 25.2 | 0.07 | 0.41 | 0.41 | 90 | 1003.4 |
| 20260906024906 | 58 | 335 | 15.6 | 27.8 | 0.07 | 0.41 | 0.41 | 90 | 1003.4 |
| 20260906024407 | 57 | 348 | 14.8 | 30.4 | 0.08 | 0.40 | 0.40 | 90 | 1003.5 |
| 20260906023906 | 57 | 358 | 13.9 | 34.8 | 0.09 | 0.39 | 0.39 | 90 | 1003.7 |
| 20260906023407 | 57 | 350 | 13.0 | 24.3 | 0.09 | 0.39 | 0.39 | 90 | 1003.6 |
| 20260906022906 | 57 | 344 | 15.6 | 26.1 | 0.10 | 0.39 | 0.39 | 90 | 1003.5 |
| 20260906022406 | 57 | 354 | 16.5 | 26.1 | 0.10 | 0.39 | 0.39 | 90 | 1003.6 |
| 20260906021907 | 57 | 344 | 14.8 | 24.3 | 0.09 | 0.38 | 0.38 | 90 | 1003.5 |
| 20260906021406 | 57 | 336 | 17.4 | 31.3 | 0.09 | 0.37 | 0.37 | 90 | 1003.6 |
| 20260906020906 | 57 | 348 | 14.8 | 25.2 | 0.06 | 0.35 | 0.35 | 89 | 1003.8 |
| 20260906020407 | 57 | 347 | 13.9 | 28.7 | 0.06 | 0.34 | 0.34 | 89 | 1003.9 |
| 20260906015407 | 57 | 351 | 14.8 | 30.4 | 0.06 | 0.34 | 0.34 | 89 | 1004.1 |
| 20260906013407 | 56 | 358 | 12.2 | 33.0 | 0.03 | 0.30 | 0.30 | 88 | 1004.8 |
| 20260906012407 | 56 | 348 | 11.3 | 26.9 | 0.05 | 0.28 | 0.28 | 87 | 1005.0 |
| 20260906011906 | 56 | 341 | 14.8 | 25.2 | 0.05 | 0.28 | 0.28 | 88 | 1005.5 |
| 20260906011407 | 56 | 355 | 15.6 | 30.4 | 0.06 | 0.28 | 0.28 | 88 | 1005.6 |
| 20260906010908 | 56 | 350 | 14.8 | 26.9 | 0.06 | 0.28 | 0.28 | 89 | 1005.7 |
| 20260906005907 | 56 | 357 | 11.3 | 18.2 | 0.08 | 0.28 | 0.28 | 89 | 1005.9 |
| 20260906004407 | 56 | 351 | 11.3 | 19.1 | 0.09 | 0.28 | 0.28 | 90 | 1006.4 |
| 20260906003907 | 56 | 348 | 11.3 | 22.6 | 0.09 | 0.27 | 0.27 | 90 | 1006.3 |
| 20260906003407 | 56 | 349 | 11.3 | 18.2 | 0.09 | 0.27 | 0.27 | 90 | 1006.5 |
| 20260906002906 | 56 | 344 | 15.6 | 24.3 | 0.09 | 0.25 | 0.25 | 90 | 1006.6 |
| 20260906002408 | 56 | 356 | 10.4 | 18.2 | 0.08 | 0.24 | 0.24 | 90 | 1006.8 |
| 20260906001907 | 56 | 347 | 7.0 | 13.9 | 0.09 | 0.24 | 0.24 | 90 | 1007.0 |
| 20260906001408 | 56 | 341 | 9.6 | 17.4 | 0.09 | 0.23 | 0.23 | 90 | 1007.4 |
| 20260906000907 | 56 | 355 | 7.8 | 13.9 | 0.09 | 0.22 | 0.22 | 90 | 1007.7 |
| 20260906000407 | 56 | 350 | 8.7 | 13.0 | 0.09 | 0.20 | 0.20 | 90 | 1007.6 |
| 20260905235908 | 56 | 352 | 8.7 | 19.1 | 0.09 | 0.20 | 0.20 | 90 | 1007.3 |
| 20260905235407 | 56 | 0 | 8.7 | 17.4 | 0.08 | 0.20 | 0.20 | 90 | 1007.3 |
| 20260905234907 | 56 | 342 | 7.8 | 15.6 | 0.07 | 0.19 | 0.19 | 90 | 1007.6 |
| 20260905234406 | 56 | 351 | 7.8 | 13.0 | 0.07 | 0.19 | 0.19 | 90 | 1008.0 |
| 20260905233906 | 56 | 348 | 7.8 | 17.4 | 0.06 | 0.18 | 0.18 | 90 | 1008.4 |
| 20260905233407 | 56 | 350 | 9.6 | 20.9 | 0.06 | 0.17 | 0.17 | 90 | 1008.6 |
| 20260905232907 | 56 | 343 | 10.4 | 24.3 | 0.05 | 0.17 | 0.17 | 90 | 1008.8 |
| 20260905232407 | 56 | 351 | 9.6 | 22.6 | 0.04 | 0.16 | 0.16 | 90 | 1008.7 |
| 20260905231906 | 57 | 333 | 8.7 | 18.2 | 0.03 | 0.15 | 0.15 | 90 | 1008.8 |
| 20260905230907 | 57 | 346 | 9.6 | 17.4 | 0.01 | 0.13 | 0.13 | 89 | 1009.0 |
| 20260905225907 | 57 | 348 | 6.1 | 15.6 | 0.00 | 0.12 | 0.12 | 89 | 1008.9 |
| 20260905225407 | 57 | 351 | 7.8 | 15.6 | 0.00 | 0.12 | 0.12 | 90 | 1009.0 |
| 20260905224406 | 57 | 353 | 7.8 | 17.4 | 0.00 | 0.12 | 0.12 | 90 | 1009.1 |